Location: New Frontier Mobile Home Park
(32.8448°N, 116.9675°W)
Time: 23:09:38
(UTC+00:00)

SL-16 R/B - Pass Details

Date: 14 July 2020
Orbit: 839 x 850 km, 71.0° (Epoch: 05 August)

Event Time Altitude Azimuth Distance (km) Brightness Sun altitude
Exits shadow 05:33:30 35° 220° (SW) 1,344 3.1 -26.1°
Maximum altitude 05:35:55 67° 292° (WNW) 912 2.4 -26.4°
Drops below altitude 10° 05:41:34 10° 15° (NNE) 2,474 5.1 -27.1°
Sets 05:44:03 0° 18° (NNE) 3,414 5.9 -27.4°
